Time,TemperatureF,DewpointF,PressureIn,WindDirection,WindDirectionDegrees,WindSpeedMPH,WindSpeedGustMPH,Humidity,HourlyPrecipIn,Conditions,Clouds,dailyrainin,SoftwareType,DateUTC
2013-02-09 00:01:00,37.0,32.0,30.24,NNE,30,3.0,-999.0,82,-99.99,,,0.00,,2013-02-09 06:01:00,
2013-02-09 00:11:00,37.0,32.0,30.24,NNE,30,3.0,-999.0,82,-99.99,,,0.00,,2013-02-09 06:11:00,
2013-02-09 00:21:00,36.0,31.0,30.25,NNE,18,2.0,-999.0,83,-99.99,,,0.00,,2013-02-09 06:21:00,
2013-02-09 00:31:00,36.0,31.0,30.26,North,4,2.0,-999.0,83,-99.99,,,0.00,,2013-02-09 06:31:00,
2013-02-09 00:42:00,36.0,31.0,30.26,North,4,2.0,-999.0,83,-99.99,,,0.00,,2013-02-09 06:42:00,
2013-02-09 00:52:00,36.0,32.0,30.26,North,4,1.0,-999.0,85,-99.99,,,0.00,,2013-02-09 06:52:00,
2013-02-09 01:01:00,35.0,31.0,30.25,North,4,2.0,-999.0,86,-99.99,,,0.00,,2013-02-09 07:01:00,
2013-02-09 01:11:00,35.0,31.0,30.25,North,4,2.0,-999.0,86,-99.99,,,0.00,,2013-02-09 07:11:00,
2013-02-09 01:21:00,36.0,32.0,30.26,NE,41,3.0,-999.0,86,-99.99,,,0.00,,2013-02-09 07:21:00,
2013-02-09 01:31:00,36.0,32.0,30.26,ENE,60,2.0,-999.0,84,-99.99,,,0.00,,2013-02-09 07:31:00,
2013-02-09 01:42:00,36.0,32.0,30.26,ENE,60,2.0,-999.0,84,-99.99,,,0.00,,2013-02-09 07:42:00,
2013-02-09 01:51:00,37.0,32.0,30.26,NNW,335,2.0,-999.0,83,-99.99,,,0.00,,2013-02-09 07:51:00,
2013-02-09 02:01:00,37.0,32.0,30.26,NNE,23,4.0,-999.0,82,-99.99,,,0.00,,2013-02-09 08:01:00,
2013-02-09 02:11:00,37.0,32.0,30.26,NNE,23,4.0,-999.0,82,-99.99,,,0.00,,2013-02-09 08:11:00,
2013-02-09 02:21:00,37.0,32.0,30.25,NE,47,4.0,-999.0,82,-99.99,,,0.00,,2013-02-09 08:21:00,
2013-02-09 02:31:00,36.0,31.0,30.26,NE,34,5.0,-999.0,82,-99.99,,,0.00,,2013-02-09 08:31:00,
2013-02-09 02:42:00,36.0,31.0,30.26,NE,34,5.0,-999.0,82,-99.99,,,0.00,,2013-02-09 08:42:00,
2013-02-09 02:52:00,36.0,31.0,30.26,NNE,18,6.0,-999.0,82,-99.99,,,0.00,,2013-02-09 08:52:00,
2013-02-09 03:03:00,36.0,31.0,30.26,NE,51,4.0,-999.0,82,-99.99,,,0.00,,2013-02-09 09:03:00,
2013-02-09 03:11:00,36.0,31.0,30.26,NE,51,4.0,-999.0,82,-99.99,,,0.00,,2013-02-09 09:11:00,
2013-02-09 03:21:00,35.0,30.0,30.26,NE,40,5.0,-999.0,82,-99.99,,,0.00,,2013-02-09 09:21:00,
2013-02-09 03:31:00,35.0,30.0,30.25,NE,46,5.0,-999.0,82,-99.99,,,0.00,,2013-02-09 09:31:00,
2013-02-09 03:41:00,35.0,30.0,30.25,NE,46,5.0,-999.0,82,-99.99,,,0.00,,2013-02-09 09:41:00,
2013-02-09 03:52:00,35.0,30.0,30.25,ENE,64,3.0,-999.0,83,-99.99,,,0.00,,2013-02-09 09:52:00,
2013-02-09 04:01:00,35.0,31.0,30.25,ENE,57,3.0,-999.0,84,-99.99,,,0.00,,2013-02-09 10:01:00,
2013-02-09 04:11:00,35.0,31.0,30.25,ENE,57,3.0,-999.0,84,-99.99,,,0.00,,2013-02-09 10:11:00,
2013-02-09 04:21:00,34.0,30.0,30.25,NNE,23,3.0,-999.0,84,-99.99,,,0.00,,2013-02-09 10:21:00,
2013-02-09 04:31:00,34.0,30.0,30.25,NE,50,5.0,-999.0,84,-99.99,,,0.00,,2013-02-09 10:31:00,
2013-02-09 04:41:00,34.0,30.0,30.25,NE,50,5.0,-999.0,84,-99.99,,,0.00,,2013-02-09 10:41:00,
2013-02-09 04:52:00,34.0,30.0,30.25,NNE,33,3.0,-999.0,84,-99.99,,,0.00,,2013-02-09 10:52:00,
2013-02-09 05:01:00,34.0,30.0,30.26,NE,41,4.0,-999.0,84,-99.99,,,0.00,,2013-02-09 11:01:00,
2013-02-09 05:11:00,34.0,30.0,30.26,NE,41,4.0,-999.0,84,-99.99,,,0.00,,2013-02-09 11:11:00,
2013-02-09 05:22:00,34.0,30.0,30.26,NNE,28,4.0,-999.0,85,-99.99,,,0.00,,2013-02-09 11:22:00,
2013-02-09 05:31:00,33.0,29.0,30.27,NE,39,4.0,-999.0,86,-99.99,,,0.00,,2013-02-09 11:31:00,
2013-02-09 05:41:00,33.0,29.0,30.27,NE,39,4.0,-999.0,86,-99.99,,,0.00,,2013-02-09 11:41:00,
2013-02-09 05:52:00,33.0,30.0,30.27,NNE,23,1.0,-999.0,87,-99.99,,,0.00,,2013-02-09 11:52:00,
2013-02-09 06:02:00,33.0,30.0,30.27,NE,39,3.0,-999.0,87,-99.99,,,0.00,,2013-02-09 12:02:00,
2013-02-09 06:11:00,33.0,30.0,30.27,NE,39,3.0,-999.0,87,-99.99,,,0.00,,2013-02-09 12:11:00,
2013-02-09 06:21:00,33.0,30.0,30.27,North,10,3.0,-999.0,87,-99.99,,,0.00,,2013-02-09 12:21:00,
2013-02-09 06:32:00,33.0,30.0,30.28,NNE,16,3.0,-999.0,88,-99.99,,,0.00,,2013-02-09 12:32:00,
2013-02-09 06:42:00,33.0,30.0,30.28,NNE,16,3.0,-999.0,88,-99.99,,,0.00,,2013-02-09 12:42:00,
2013-02-09 06:52:00,32.0,29.0,30.29,North,349,3.0,-999.0,87,-99.99,,,0.00,,2013-02-09 12:52:00,
2013-02-09 07:02:00,31.0,28.0,30.30,NNW,341,3.0,-999.0,90,-99.99,,,0.00,,2013-02-09 13:02:00,
2013-02-09 07:11:00,31.0,28.0,30.30,NNW,341,3.0,-999.0,90,-99.99,,,0.00,,2013-02-09 13:11:00,
2013-02-09 07:22:00,32.0,29.0,30.31,North,359,2.0,-999.0,90,-99.99,,,0.00,,2013-02-09 13:22:00,
2013-02-09 07:32:00,33.0,30.0,30.32,North,4,3.0,-999.0,89,-99.99,,,0.00,,2013-02-09 13:32:00,
2013-02-09 07:42:00,33.0,30.0,30.32,North,4,3.0,-999.0,89,-99.99,,,0.00,,2013-02-09 13:42:00,
2013-02-09 07:52:00,34.0,31.0,30.32,NNE,23,4.0,-999.0,87,-99.99,,,0.00,,2013-02-09 13:52:00,
2013-02-09 08:01:00,35.0,31.0,30.33,NNE,17,4.0,-999.0,85,-99.99,,,0.00,,2013-02-09 14:01:00,
2013-02-09 08:11:00,35.0,31.0,30.33,NNE,17,4.0,-999.0,85,-99.99,,,0.00,,2013-02-09 14:11:00,
2013-02-09 08:21:00,36.0,32.0,30.33,North,4,3.0,-999.0,84,-99.99,,,0.00,,2013-02-09 14:21:00,
2013-02-09 08:31:00,37.0,32.0,30.33,NE,49,4.0,-999.0,82,-99.99,,,0.00,,2013-02-09 14:31:00,
2013-02-09 08:41:00,37.0,32.0,30.33,NE,49,4.0,-999.0,82,-99.99,,,0.00,,2013-02-09 14:41:00,
2013-02-09 08:52:00,38.0,32.0,30.33,NE,39,3.0,-999.0,79,-99.99,,,0.00,,2013-02-09 14:52:00,
2013-02-09 09:02:00,39.0,33.0,30.33,NNE,27,4.0,-999.0,78,-99.99,,,0.00,,2013-02-09 15:02:00,
2013-02-09 09:11:00,39.0,33.0,30.33,NNE,27,4.0,-999.0,78,-99.99,,,0.00,,2013-02-09 15:11:00,
2013-02-09 09:21:00,40.0,33.0,30.33,East,83,4.0,-999.0,75,-99.99,,,0.00,,2013-02-09 15:21:00,
2013-02-09 09:32:00,40.0,33.0,30.32,NNE,25,4.0,-999.0,75,-99.99,,,0.00,,2013-02-09 15:32:00,
2013-02-09 09:42:00,40.0,33.0,30.32,NNE,25,4.0,-999.0,75,-99.99,,,0.00,,2013-02-09 15:42:00,
2013-02-09 09:52:00,41.0,33.0,30.32,East,91,4.0,-999.0,73,-99.99,,,0.00,,2013-02-09 15:52:00,
2013-02-09 10:01:00,43.0,34.0,30.32,NE,53,2.0,-999.0,69,-99.99,,,0.00,,2013-02-09 16:01:00,
2013-02-09 10:11:00,43.0,34.0,30.32,NE,53,2.0,-999.0,69,-99.99,,,0.00,,2013-02-09 16:11:00,
2013-02-09 10:22:00,44.0,33.0,30.32,East,83,4.0,-999.0,66,-99.99,,,0.00,,2013-02-09 16:22:00,
2013-02-09 10:31:00,45.0,34.0,30.32,SE,129,4.0,-999.0,64,-99.99,,,0.00,,2013-02-09 16:31:00,
2013-02-09 10:41:00,45.0,34.0,30.32,SE,129,4.0,-999.0,64,-99.99,,,0.00,,2013-02-09 16:41:00,
2013-02-09 10:51:00,47.0,34.0,30.32,SE,126,2.0,-999.0,60,-99.99,,,0.00,,2013-02-09 16:51:00,
2013-02-09 11:01:00,48.0,33.0,30.31,ESE,122,3.0,-999.0,55,-99.99,,,0.00,,2013-02-09 17:01:00,
2013-02-09 11:11:00,48.0,33.0,30.31,ESE,122,3.0,-999.0,55,-99.99,,,0.00,,2013-02-09 17:11:00,
2013-02-09 11:21:00,48.0,33.0,30.30,ESE,117,6.0,-999.0,56,-99.99,,,0.00,,2013-02-09 17:21:00,
2013-02-09 11:32:00,49.0,34.0,30.29,NE,54,3.0,-999.0,55,-99.99,,,0.00,,2013-02-09 17:32:00,
2013-02-09 11:41:00,49.0,34.0,30.29,NE,54,3.0,-999.0,55,-99.99,,,0.00,,2013-02-09 17:41:00,
2013-02-09 11:52:00,49.0,32.0,30.28,ESE,103,5.0,-999.0,52,-99.99,,,0.00,,2013-02-09 17:52:00,
2013-02-09 12:02:00,50.0,33.0,30.29,SE,129,4.0,-999.0,51,-99.99,,,0.00,,2013-02-09 18:02:00,
2013-02-09 12:12:00,50.0,33.0,30.29,SE,129,4.0,-999.0,51,-99.99,,,0.00,,2013-02-09 18:12:00,
2013-02-09 12:23:00,51.0,34.0,30.27,South,177,1.0,-999.0,51,-99.99,,,0.00,,2013-02-09 18:23:00,
2013-02-09 12:32:00,52.0,33.0,30.27,SE,142,3.0,-999.0,49,-99.99,,,0.00,,2013-02-09 18:32:00,
2013-02-09 12:42:00,52.0,33.0,30.27,SE,142,3.0,-999.0,49,-99.99,,,0.00,,2013-02-09 18:42:00,
2013-02-09 12:51:00,52.0,33.0,30.25,ESE,105,4.0,-999.0,48,-99.99,,,0.00,,2013-02-09 18:51:00,
2013-02-09 13:01:00,53.0,33.0,30.25,ESE,112,3.0,-999.0,47,-99.99,,,0.00,,2013-02-09 19:01:00,
2013-02-09 13:11:00,53.0,33.0,30.25,ESE,112,3.0,-999.0,47,-99.99,,,0.00,,2013-02-09 19:11:00,
2013-02-09 13:22:00,54.0,32.0,30.24,SE,125,5.0,-999.0,43,-99.99,,,0.00,,2013-02-09 19:22:00,
2013-02-09 13:31:00,55.0,32.0,30.23,SE,136,5.0,-999.0,42,-99.99,,,0.00,,2013-02-09 19:31:00,
2013-02-09 13:42:00,55.0,32.0,30.23,SE,136,5.0,-999.0,42,-99.99,,,0.00,,2013-02-09 19:42:00,
2013-02-09 13:52:00,56.0,33.0,30.22,ESE,102,3.0,-999.0,41,-99.99,,,0.00,,2013-02-09 19:52:00,
2013-02-09 14:01:00,57.0,33.0,30.21,ENE,75,3.0,-999.0,40,-99.99,,,0.00,,2013-02-09 20:01:00,
2013-02-09 14:11:00,57.0,33.0,30.21,ENE,75,3.0,-999.0,40,-99.99,,,0.00,,2013-02-09 20:11:00,
2013-02-09 14:21:00,58.0,31.0,30.21,SSE,151,5.0,-999.0,36,-99.99,,,0.00,,2013-02-09 20:21:00,
2013-02-09 14:32:00,59.0,33.0,30.20,SSE,149,4.0,-999.0,38,-99.99,,,0.00,,2013-02-09 20:32:00,
2013-02-09 14:42:00,59.0,33.0,30.20,SSE,149,4.0,-999.0,38,-99.99,,,0.00,,2013-02-09 20:42:00,
2013-02-09 14:52:00,59.0,33.0,30.19,East,97,3.0,-999.0,37,-99.99,,,0.00,,2013-02-09 20:52:00,
2013-02-09 15:02:00,60.0,33.0,30.19,South,172,4.0,-999.0,36,-99.99,,,0.00,,2013-02-09 21:02:00,
2013-02-09 15:11:00,60.0,33.0,30.19,South,172,4.0,-999.0,36,-99.99,,,0.00,,2013-02-09 21:11:00,
2013-02-09 15:21:00,60.0,33.0,30.19,South,171,3.0,-999.0,36,-99.99,,,0.00,,2013-02-09 21:21:00,
2013-02-09 15:31:00,60.0,34.0,30.18,East,91,3.0,-999.0,37,-99.99,,,0.00,,2013-02-09 21:31:00,
2013-02-09 15:41:00,60.0,34.0,30.18,East,91,3.0,-999.0,37,-99.99,,,0.00,,2013-02-09 21:41:00,
2013-02-09 15:52:00,61.0,32.0,30.17,East,100,2.0,-999.0,34,-99.99,,,0.00,,2013-02-09 21:52:00,
2013-02-09 16:01:00,61.0,34.0,30.16,East,93,3.0,-999.0,36,-99.99,,,0.00,,2013-02-09 22:01:00,
2013-02-09 16:11:00,61.0,34.0,30.16,East,93,3.0,-999.0,36,-99.99,,,0.00,,2013-02-09 22:11:00,
2013-02-09 16:21:00,61.0,33.0,30.16,SE,136,2.0,-999.0,35,-99.99,,,0.00,,2013-02-09 22:21:00,
2013-02-09 16:32:00,60.0,32.0,30.17,SE,134,1.0,-999.0,35,-99.99,,,0.00,,2013-02-09 22:32:00,
2013-02-09 16:42:00,60.0,32.0,30.17,SE,134,1.0,-999.0,35,-99.99,,,0.00,,2013-02-09 22:42:00,
2013-02-09 16:52:00,60.0,32.0,30.16,SE,134,1.0,-999.0,35,-99.99,,,0.00,,2013-02-09 22:52:00,
2013-02-09 17:01:00,59.0,37.0,30.16,SE,134,1.0,-999.0,43,-99.99,,,0.00,,2013-02-09 23:01:00,
2013-02-09 17:11:00,59.0,37.0,30.16,SE,134,1.0,-999.0,43,-99.99,,,0.00,,2013-02-09 23:11:00,
2013-02-09 17:21:00,54.0,37.0,30.17,SE,134,0.0,-999.0,52,-99.99,,,0.00,,2013-02-09 23:21:00,
2013-02-09 17:32:00,52.0,37.0,30.16,SE,134,0.0,-999.0,57,-99.99,,,0.00,,2013-02-09 23:32:00,
2013-02-09 17:52:00,51.0,38.0,30.16,SE,134,0.0,-999.0,60,-99.99,,,0.00,,2013-02-09 23:52:00,
2013-02-09 18:02:00,49.0,37.0,30.17,SE,134,1.0,-999.0,63,-99.99,,,0.00,,2013-02-10 00:02:00,
2013-02-09 18:11:00,49.0,37.0,30.17,SE,134,1.0,-999.0,63,-99.99,,,0.00,,2013-02-10 00:11:00,
2013-02-09 18:21:00,49.0,38.0,30.16,SE,134,0.0,-999.0,65,-99.99,,,0.00,,2013-02-10 00:21:00,
2013-02-09 18:32:00,48.0,38.0,30.16,SE,134,0.0,-999.0,67,-99.99,,,0.00,,2013-02-10 00:32:00,
2013-02-09 18:42:00,48.0,38.0,30.16,SE,134,0.0,-999.0,67,-99.99,,,0.00,,2013-02-10 00:42:00,
2013-02-09 18:52:00,47.0,37.0,30.16,SE,134,0.0,-999.0,67,-99.99,,,0.00,,2013-02-10 00:52:00,
2013-02-09 19:01:00,47.0,37.0,30.15,SE,134,0.0,-999.0,68,-99.99,,,0.00,,2013-02-10 01:01:00,
2013-02-09 19:12:00,47.0,37.0,30.15,SE,134,0.0,-999.0,68,-99.99,,,0.00,,2013-02-10 01:12:00,
2013-02-09 19:21:00,46.0,36.0,30.16,SE,134,0.0,-999.0,69,-99.99,,,0.00,,2013-02-10 01:21:00,
2013-02-09 19:31:00,46.0,37.0,30.15,SE,134,0.0,-999.0,70,-99.99,,,0.00,,2013-02-10 01:31:00,
2013-02-09 19:42:00,46.0,37.0,30.15,SE,134,0.0,-999.0,70,-99.99,,,0.00,,2013-02-10 01:42:00,
2013-02-09 19:51:00,47.0,37.0,30.16,SE,125,0.0,-999.0,68,-99.99,,,0.00,,2013-02-10 01:51:00,
2013-02-09 20:01:00,47.0,37.0,30.16,SE,125,0.0,-999.0,68,-99.99,,,0.00,,2013-02-10 02:01:00,
2013-02-09 20:11:00,47.0,37.0,30.16,SE,125,0.0,-999.0,68,-99.99,,,0.00,,2013-02-10 02:11:00,
2013-02-09 20:22:00,49.0,35.0,30.17,SE,133,3.0,-999.0,59,-99.99,,,0.00,,2013-02-10 02:22:00,
2013-02-09 20:32:00,50.0,35.0,30.17,SE,146,4.0,-999.0,57,-99.99,,,0.00,,2013-02-10 02:32:00,
2013-02-09 20:42:00,50.0,35.0,30.17,SE,146,4.0,-999.0,57,-99.99,,,0.00,,2013-02-10 02:42:00,
2013-02-09 20:52:00,51.0,35.0,30.17,SE,136,2.0,-999.0,55,-99.99,,,0.00,,2013-02-10 02:52:00,
2013-02-09 21:01:00,51.0,36.0,30.16,SE,125,2.0,-999.0,56,-99.99,,,0.00,,2013-02-10 03:01:00,
2013-02-09 21:11:00,51.0,36.0,30.16,SE,125,2.0,-999.0,56,-99.99,,,0.00,,2013-02-10 03:11:00,
2013-02-09 21:21:00,50.0,36.0,30.17,SE,125,1.0,-999.0,58,-99.99,,,0.00,,2013-02-10 03:21:00,
2013-02-09 21:32:00,49.0,36.0,30.17,SE,124,0.0,-999.0,61,-99.99,,,0.00,,2013-02-10 03:32:00,
2013-02-09 21:42:00,49.0,36.0,30.17,SE,124,0.0,-999.0,61,-99.99,,,0.00,,2013-02-10 03:42:00,
2013-02-09 21:51:00,48.0,36.0,30.16,SE,124,2.0,-999.0,64,-99.99,,,0.00,,2013-02-10 03:51:00,
2013-02-09 22:01:00,48.0,36.0,30.16,SSE,153,1.0,-999.0,63,-99.99,,,0.00,,2013-02-10 04:01:00,
2013-02-09 22:11:00,48.0,36.0,30.16,SSE,153,1.0,-999.0,63,-99.99,,,0.00,,2013-02-10 04:11:00,
2013-02-09 22:21:00,50.0,37.0,30.15,SE,135,4.0,-999.0,60,-99.99,,,0.00,,2013-02-10 04:21:00,
2013-02-09 22:32:00,50.0,36.0,30.16,SE,139,3.0,-999.0,59,-99.99,,,0.00,,2013-02-10 04:32:00,
2013-02-09 22:42:00,50.0,36.0,30.16,SE,139,3.0,-999.0,59,-99.99,,,0.00,,2013-02-10 04:42:00,
2013-02-09 22:52:00,51.0,37.0,30.15,SE,140,5.0,-999.0,58,-99.99,,,0.00,,2013-02-10 04:52:00,
2013-02-09 23:01:00,51.0,36.0,30.16,SSE,147,6.0,-999.0,56,-99.99,,,0.00,,2013-02-10 05:01:00,
2013-02-09 23:11:00,51.0,36.0,30.16,SSE,147,6.0,-999.0,56,-99.99,,,0.00,,2013-02-10 05:11:00,
2013-02-09 23:22:00,51.0,36.0,30.16,SE,132,5.0,-999.0,57,-99.99,,,0.00,,2013-02-10 05:22:00,
2013-02-09 23:31:00,52.0,36.0,30.16,South,171,8.0,-999.0,55,-99.99,,,0.00,,2013-02-10 05:31:00,
2013-02-09 23:41:00,52.0,36.0,30.16,South,171,8.0,-999.0,55,-99.99,,,0.00,,2013-02-10 05:41:00,
2013-02-09 23:52:00,53.0,36.0,30.17,SSE,147,6.0,-999.0,53,-99.99,,,0.00,,2013-02-10 05:52:00,